TimeEDT,TemperatureF,Dew PointF,Humidity,Sea Level PressureIn,VisibilityMPH,Wind Direction,Wind SpeedMPH,Gust SpeedMPH,PrecipitationIn,Events,Conditions,WindDirDegrees,DateUTC
12:15 AM,52.3,52.2,99,30.16,5.0,Calm,Calm,-,N/A,,Clear,0,2013-08-16 04:15:00
12:35 AM,52.7,52.7,100,30.16,5.0,Calm,Calm,-,N/A,,Clear,0,2013-08-16 04:35:00
12:55 AM,52.0,52.0,100,30.16,5.0,Calm,Calm,-,N/A,,Clear,0,2013-08-16 04:55:00
1:15 AM,52.0,52.0,100,30.16,5.0,Calm,Calm,-,N/A,,Clear,0,2013-08-16 05:15:00
1:55 AM,51.4,51.4,100,30.16,5.0,Calm,Calm,-,N/A,,Clear,0,2013-08-16 05:55:00
2:15 AM,50.9,50.9,100,30.15,5.0,Calm,Calm,-,N/A,,Clear,0,2013-08-16 06:15:00
2:35 AM,50.9,50.9,100,30.14,5.0,Calm,Calm,-,N/A,,Clear,0,2013-08-16 06:35:00
2:55 AM,51.6,51.6,100,30.14,4.0,Calm,Calm,-,N/A,,Clear,0,2013-08-16 06:55:00
3:15 AM,50.9,50.9,100,30.14,4.0,Calm,Calm,-,N/A,,Clear,0,2013-08-16 07:15:00
3:35 AM,50.7,50.7,100,30.14,5.0,Calm,Calm,-,N/A,,Clear,0,2013-08-16 07:35:00
3:55 AM,50.4,50.4,100,30.14,5.0,Calm,Calm,-,N/A,,Clear,0,2013-08-16 07:55:00
4:15 AM,50.4,50.4,100,30.14,4.0,Calm,Calm,-,N/A,,Clear,0,2013-08-16 08:15:00
4:35 AM,51.3,51.3,100,30.14,4.0,Calm,Calm,-,N/A,,Clear,0,2013-08-16 08:35:00
4:55 AM,51.1,51.1,100,30.14,4.0,Calm,Calm,-,N/A,,Clear,0,2013-08-16 08:55:00
5:15 AM,51.8,51.8,100,30.15,4.0,Calm,Calm,-,N/A,,Clear,0,2013-08-16 09:15:00
5:35 AM,50.9,50.9,100,30.15,4.0,Calm,Calm,-,N/A,,Clear,0,2013-08-16 09:35:00
5:55 AM,50.9,50.9,100,30.15,5.0,Calm,Calm,-,N/A,,Clear,0,2013-08-16 09:55:00
6:15 AM,50.0,50.0,100,30.15,5.0,Calm,Calm,-,N/A,,Clear,0,2013-08-16 10:15:00
6:35 AM,50.4,50.4,100,30.16,5.0,Calm,Calm,-,N/A,,Clear,0,2013-08-16 10:35:00
6:55 AM,50.7,50.7,100,30.17,3.0,Calm,Calm,-,N/A,,Clear,0,2013-08-16 10:55:00
7:15 AM,52.0,52.0,100,30.18,3.0,Calm,Calm,-,N/A,,Clear,0,2013-08-16 11:15:00
7:35 AM,54.0,54.0,100,30.18,5.0,Calm,Calm,-,N/A,,Clear,0,2013-08-16 11:35:00
7:55 AM,56.7,56.7,100,30.18,7.0,Calm,Calm,-,N/A,,Mostly Cloudy,0,2013-08-16 11:55:00
8:15 AM,57.0,57.0,100,30.18,7.0,Calm,Calm,-,N/A,,Mostly Cloudy,0,2013-08-16 12:15:00
8:35 AM,59.0,58.6,99,30.18,10.0,Calm,Calm,-,N/A,,Clear,0,2013-08-16 12:35:00
8:55 AM,60.8,59.0,94,30.18,10.0,Calm,Calm,-,N/A,,Clear,0,2013-08-16 12:55:00
9:15 AM,61.7,59.2,91,30.18,10.0,Calm,Calm,-,N/A,,Clear,0,2013-08-16 13:15:00
9:35 AM,62.4,59.7,91,30.19,10.0,Calm,Calm,-,N/A,,Clear,0,2013-08-16 13:35:00
9:55 AM,62.8,59.7,90,30.18,10.0,Calm,Calm,-,N/A,,Clear,0,2013-08-16 13:55:00
10:15 AM,63.5,59.9,88,30.19,10.0,Calm,Calm,-,N/A,,Clear,0,2013-08-16 14:15:00
10:35 AM,64.9,60.6,86,30.19,10.0,Calm,Calm,-,N/A,,Clear,0,2013-08-16 14:35:00
10:55 AM,66.9,60.1,79,30.19,10.0,Calm,Calm,-,N/A,,Clear,0,2013-08-16 14:55:00
11:15 AM,67.6,59.9,76,30.20,10.0,Calm,Calm,-,N/A,,Clear,0,2013-08-16 15:15:00
11:35 AM,67.3,59.7,77,30.20,10.0,Calm,Calm,-,N/A,,Clear,0,2013-08-16 15:35:00
11:55 AM,68.0,60.6,77,30.19,10.0,Calm,Calm,-,N/A,,Clear,0,2013-08-16 15:55:00
12:15 PM,68.0,60.6,77,30.19,10.0,Calm,Calm,-,N/A,,Clear,0,2013-08-16 16:15:00
12:35 PM,68.9,60.6,75,30.18,10.0,Calm,Calm,-,N/A,,Scattered Clouds,0,2013-08-16 16:35:00
12:55 PM,69.8,60.1,71,30.17,10.0,Calm,Calm,-,N/A,,Scattered Clouds,0,2013-08-16 16:55:00
1:15 PM,69.4,59.4,70,30.18,10.0,Calm,Calm,-,N/A,,Clear,0,2013-08-16 17:15:00
1:35 PM,69.8,60.1,71,30.18,10.0,Calm,Calm,-,N/A,,Clear,0,2013-08-16 17:35:00
1:55 PM,69.8,59.5,70,30.18,10.0,NE,3.5,-,N/A,,Clear,40,2013-08-16 17:55:00
2:15 PM,69.8,59.2,69,30.18,10.0,Calm,Calm,-,N/A,,Clear,0,2013-08-16 18:15:00
2:35 PM,70.2,58.8,67,30.18,10.0,Calm,Calm,-,N/A,,Clear,0,2013-08-16 18:35:00
2:55 PM,69.8,59.4,69,30.17,10.0,Calm,Calm,-,N/A,,Scattered Clouds,0,2013-08-16 18:55:00
3:15 PM,70.0,59.0,68,30.16,10.0,Calm,Calm,-,N/A,,Clear,0,2013-08-16 19:15:00
3:35 PM,69.8,58.3,67,30.16,10.0,Calm,Calm,-,N/A,,Clear,0,2013-08-16 19:35:00
3:55 PM,69.8,59.5,70,30.15,10.0,Calm,Calm,-,N/A,,Clear,0,2013-08-16 19:55:00
4:15 PM,69.8,59.7,70,30.15,10.0,Calm,Calm,-,N/A,,Clear,0,2013-08-16 20:15:00
4:35 PM,69.8,59.0,68,30.15,10.0,Calm,Calm,-,N/A,,Clear,0,2013-08-16 20:35:00
4:55 PM,70.9,58.1,64,30.16,10.0,East,3.5,-,N/A,,Clear,100,2013-08-16 20:55:00
5:15 PM,71.2,57.9,63,30.16,10.0,ESE,3.5,-,N/A,,Clear,110,2013-08-16 21:15:00
5:35 PM,71.6,58.6,64,30.16,10.0,ENE,3.5,-,N/A,,Clear,60,2013-08-16 21:35:00
5:55 PM,71.6,58.1,62,30.16,10.0,Calm,Calm,-,N/A,,Clear,0,2013-08-16 21:55:00
6:15 PM,71.4,57.6,62,30.16,10.0,ENE,3.5,-,N/A,,Clear,70,2013-08-16 22:15:00
6:35 PM,71.1,57.9,63,30.16,10.0,Calm,Calm,-,N/A,,Clear,0,2013-08-16 22:35:00
6:55 PM,70.3,57.7,64,30.15,10.0,Calm,Calm,-,N/A,,Clear,0,2013-08-16 22:55:00
7:15 PM,69.1,57.9,68,30.15,10.0,Calm,Calm,-,N/A,,Clear,0,2013-08-16 23:15:00
7:35 PM,67.1,58.6,74,30.15,10.0,Calm,Calm,-,N/A,,Clear,0,2013-08-16 23:35:00
7:55 PM,64.4,59.2,83,30.16,10.0,Calm,Calm,-,N/A,,Clear,0,2013-08-16 23:55:00
8:15 PM,62.2,59.9,92,30.17,10.0,Calm,Calm,-,N/A,,Clear,0,2013-08-17 00:15:00
8:35 PM,60.4,59.2,96,30.18,10.0,Calm,Calm,-,N/A,,Clear,0,2013-08-17 00:35:00
8:55 PM,59.0,57.9,96,30.18,10.0,Calm,Calm,-,N/A,,Clear,0,2013-08-17 00:55:00
9:15 PM,57.9,57.2,97,30.19,7.0,Calm,Calm,-,N/A,,Clear,0,2013-08-17 01:15:00
9:35 PM,56.8,56.3,98,30.20,7.0,Calm,Calm,-,N/A,,Clear,0,2013-08-17 01:35:00
9:55 PM,56.7,56.1,98,30.21,7.0,Calm,Calm,-,N/A,,Clear,0,2013-08-17 01:55:00
10:15 PM,55.8,55.4,99,30.21,5.0,Calm,Calm,-,N/A,,Clear,0,2013-08-17 02:15:00
10:35 PM,55.4,55.0,99,30.20,7.0,Calm,Calm,-,N/A,,Clear,0,2013-08-17 02:35:00
10:55 PM,55.2,54.9,99,30.20,5.0,Calm,Calm,-,N/A,,Clear,0,2013-08-17 02:55:00
11:35 PM,54.5,54.5,100,30.21,7.0,Calm,Calm,-,N/A,,Clear,0,2013-08-17 03:35:00
11:55 PM,55.2,55.2,100,30.21,5.0,Calm,Calm,-,N/A,,Clear,0,2013-08-17 03:55:00